Date String (YYYY-MM-DD hh:mm:ss) UTC,Instrument flags,absolute air pressure of the measurement (hPa),sample flow rate (lpm),inlet stack bypass flow (lpm),air temperature of the measurement (°C),ambient temperature measured by the external sensor (°C),aerosol sample conditioner tube jacket temperature (°C),OPC LED temperature (°C),internal box temperature (°C),relative humidity of the measurement (%),span deviation,mass concentration of particles derived from Lorenz-Mie calculation of OPC scattering (μg/m³),mass concentration of particles derived from Lorenz-Mie calculation of OPC scattering (μg/m³),mass concentration of particles derived from Lorenz-Mie calculation of OPC scattering (μg/m³)
DateTimeUTC,F1_M11,P_M11,Q1_M11,Q2_M11,T1_M11,T2_M11,T3_M11,T4_M11,T5_M11,U1_M11,ZSPAN_M11,X0_M11,X2_M11,X1_M11
2023-12-06 12:00:00,SystemResetWarning,0833.8,5.00,000.00,024.0,023.0,000.0,032.4,025.3,11.6,0000.0,0000.44,0000.22,0000.17
2023-12-06 12:01:00,SystemResetWarning,0833.8,5.00,000.00,024.0,023.0,000.0,032.4,025.2,11.8,0000.0,0000.41,0000.21,0000.16
2023-12-06 12:02:00,SystemResetWarning,0833.9,5.00,000.00,024.0,023.0,000.0,032.4,025.2,12.0,0000.0,0000.37,0000.20,0000.15
2023-12-06 12:03:00,SystemResetWarning,0833.9,5.00,000.00,024.0,023.0,000.0,032.4,025.2,12.6,0000.0,0000.29,0000.19,0000.16
2023-12-06 12:04:00,SystemResetWarning,0833.9,5.00,000.00,024.0,023.0,000.0,032.3,025.2,12.6,0000.0,0000.30,0000.19,0000.16
2023-12-06 12:05:00,SystemResetWarning,0833.8,5.00,000.00,024.0,023.0,000.0,032.3,025.2,12.3,0000.0,0000.30,0000.19,0000.15
2023-12-06 12:06:00,SystemResetWarning,0833.9,5.00,000.00,024.0,023.0,000.0,032.3,025.2,12.1,0000.0,0000.32,0000.20,0000.15
2023-12-06 12:07:00,SystemResetWarning,0833.8,5.00,000.00,024.0,023.0,000.0,032.3,025.3,12.0,0000.0,0000.27,0000.19,0000.15
2023-12-06 12:08:00,SystemResetWarning,0833.9,5.00,000.00,024.0,023.0,000.0,032.3,025.3,12.0,0000.0,0000.26,0000.18,0000.15
2023-12-06 12:09:00,SystemResetWarning,0833.9,5.00,000.00,024.0,023.0,000.0,032.3,025.3,12.1,0000.0,0000.27,0000.19,0000.15
2023-12-06 12:10:00,SystemResetWarning,0833.8,5.01,000.00,024.0,023.0,000.0,032.3,025.3,12.3,0000.0,0000.26,0000.19,0000.15
2023-12-06 12:11:00,SystemResetWarning,0833.8,5.00,000.00,024.0,023.0,000.0,032.3,025.3,12.1,0000.0,0000.25,0000.19,0000.16
2023-12-06 12:12:00,SystemResetWarning,0833.8,5.00,000.00,024.0,023.0,000.0,032.3,025.3,12.3,0000.0,0000.34,0000.26,0000.22
2023-12-06 12:13:00,SystemResetWarning,0833.8,5.00,000.00,024.0,023.0,000.0,032.3,025.3,12.3,0000.0,0000.42,0000.33,0000.29
2023-12-06 12:14:00,SystemResetWarning,0833.8,5.00,000.00,023.9,023.0,000.0,032.3,025.3,12.4,0000.0,0000.45,0000.36,0000.33
2023-12-06 12:15:00,SystemResetWarning,0833.8,5.00,000.00,023.9,023.0,000.0,032.3,025.3,12.3,0000.0,0000.48,0000.39,0000.35
2023-12-06 12:16:00,SystemResetWarning,0833.8,5.00,000.00,023.9,022.9,000.0,032.3,025.3,12.5,0000.0,0000.48,0000.40,0000.36
2023-12-06 12:17:00,SystemResetWarning,0833.8,5.00,000.00,023.9,022.9,000.0,032.3,025.2,13.2,0000.0,0000.47,0000.39,0000.37
2023-12-06 12:18:00,SystemResetWarning,0833.8,5.00,000.00,023.9,022.9,000.0,032.3,025.2,13.3,0000.0,0000.48,0000.41,0000.38
2023-12-06 12:19:00,SystemResetWarning,0833.8,5.00,000.00,023.9,022.9,000.0,032.3,025.2,13.4,0000.0,0000.52,0000.44,0000.41
2023-12-06 12:20:00,SystemResetWarning,0833.8,5.01,000.00,023.9,022.9,000.0,032.3,025.2,13.5,0000.0,0000.55,0000.45,0000.42
2023-12-06 12:21:00,SystemResetWarning,0833.9,4.99,000.00,023.9,022.9,000.0,032.3,025.2,13.6,0000.0,0000.56,0000.46,0000.43
2023-12-06 12:22:00,SystemResetWarning,0833.9,5.00,000.00,023.9,022.9,000.0,032.3,025.2,13.6,0000.0,0000.57,0000.47,0000.44
2023-12-06 12:23:00,SystemResetWarning,0833.9,5.00,000.00,023.9,022.9,000.0,032.3,025.2,13.6,0000.0,0000.55,0000.44,0000.41
2023-12-06 12:24:00,SystemResetWarning,0833.9,5.00,000.00,023.9,022.8,000.0,032.3,025.2,13.5,0000.0,0000.45,0000.37,0000.35
2023-12-06 12:25:00,SystemResetWarning,0834.0,5.00,000.00,023.9,022.8,000.0,032.2,025.1,13.4,0000.0,0000.42,0000.35,0000.32
2023-12-06 12:26:00,SystemResetWarning,0834.0,5.00,000.00,023.9,022.8,000.0,032.2,025.1,13.4,0000.0,0000.55,0000.42,0000.38
2023-12-06 12:27:00,SystemResetWarning,0833.9,5.00,000.00,023.8,022.8,000.0,032.2,025.1,13.4,0000.0,0000.98,0000.56,0000.49
2023-12-06 12:28:00,SystemResetWarning,0833.9,5.00,000.00,023.8,022.8,000.0,032.2,025.1,13.4,0000.0,0001.59,0000.68,0000.60
2023-12-06 12:29:00,SystemResetWarning,0834.0,5.00,000.00,023.8,022.8,000.0,032.2,025.1,13.3,0000.0,0001.78,0000.84,0000.73
2023-12-06 12:30:00,SystemResetWarning,0834.0,5.00,000.00,023.8,022.7,000.0,032.2,025.1,13.3,0000.0,0001.93,0000.96,0000.84
2023-12-06 12:31:00,SystemResetWarning,0834.0,5.00,000.00,023.8,022.7,000.0,032.2,025.0,13.1,0000.0,0002.08,0001.10,0000.97
2023-12-06 12:32:00,SystemResetWarning,0834.0,5.00,000.00,023.8,022.8,000.0,032.2,025.0,13.2,0000.0,0002.23,0001.23,0001.09
2023-12-06 12:33:00,SystemResetWarning,0833.9,5.00,000.00,023.8,022.8,000.0,032.2,025.0,13.2,0000.0,0002.38,0001.35,0001.20
2023-12-06 12:34:00,SystemResetWarning,0833.9,5.00,000.00,023.8,022.8,000.0,032.2,025.0,13.3,0000.0,0002.63,0001.47,0001.29
2023-12-06 12:35:00,SystemResetWarning,0833.9,5.00,000.00,023.8,022.8,000.0,032.2,025.1,13.3,0000.0,0002.85,0001.60,0001.37
2023-12-06 12:36:00,SystemResetWarning,0834.0,5.00,000.00,023.8,022.8,000.0,032.2,025.1,13.3,0000.0,0002.98,0001.69,0001.44
2023-12-06 12:37:00,SystemResetWarning,0833.9,5.00,000.00,023.8,022.8,000.0,032.2,025.1,13.3,0000.0,0002.98,0001.70,0001.45
2023-12-06 12:38:00,SystemResetWarning,0834.0,5.00,000.00,023.8,022.8,000.0,032.2,025.1,13.2,0000.0,0002.82,0001.66,0001.40
2023-12-06 12:39:00,SystemResetWarning,0833.9,4.99,000.00,023.8,022.8,000.0,032.2,025.1,13.3,0000.0,0002.39,0001.62,0001.34
2023-12-06 12:40:00,SystemResetWarning,0833.9,5.00,000.00,023.8,022.9,000.0,032.2,025.1,13.2,0000.0,0003.23,0001.51,0001.25
2023-12-06 12:41:00,SystemResetWarning,0833.9,5.00,000.00,023.8,022.9,000.0,032.2,025.1,13.2,0000.0,0003.16,0001.44,0001.18
2023-12-06 12:42:00,SystemResetWarning,0833.8,5.00,000.00,023.8,022.9,000.0,032.2,025.1,13.3,0000.0,0003.16,0001.38,0001.11
2023-12-06 12:43:00,SystemResetWarning,0833.8,5.00,000.00,023.8,022.9,000.0,032.2,025.1,13.4,0000.0,0003.15,0001.32,0001.04
2023-12-06 12:44:00,SystemResetWarning,0833.9,5.00,000.00,023.8,022.9,000.0,032.2,025.1,13.5,0000.0,0003.06,0001.27,0001.00
2023-12-06 12:45:00,SystemResetWarning,0833.9,5.00,000.00,023.8,022.9,000.0,032.2,025.1,13.5,0000.0,0002.88,0001.22,0000.97
2023-12-06 12:46:00,SystemResetWarning,0833.9,5.01,000.00,023.8,022.9,000.0,032.2,025.2,13.5,0000.0,0002.76,0001.16,0000.96
2023-12-06 12:47:00,SystemResetWarning,0834.0,5.00,000.00,023.9,022.9,000.0,032.2,025.1,13.5,0000.0,0002.76,0001.17,0000.95
2023-12-06 12:48:00,SystemResetWarning,0833.9,5.00,000.00,023.9,022.9,000.0,032.2,025.1,13.4,0000.0,0002.75,0001.17,0000.95
2023-12-06 12:49:00,SystemResetWarning,0834.0,5.00,000.00,023.8,022.9,000.0,032.2,025.1,13.1,0000.0,0002.72,0001.15,0000.96
2023-12-06 12:50:00,SystemResetWarning,0833.9,5.01,000.00,023.8,022.9,000.0,032.2,025.1,13.2,0000.0,0002.50,0001.14,0000.96
2023-12-06 12:51:00,SystemResetWarning,0833.8,5.01,000.00,023.8,022.9,000.0,032.2,025.1,13.4,0000.0,0001.60,0001.18,0000.98
2023-12-06 12:52:00,SystemResetWarning,0833.8,5.00,000.00,023.8,022.9,000.0,032.2,025.0,13.4,0000.0,0001.62,0001.19,0001.01
2023-12-06 12:53:00,SystemResetWarning,0833.8,4.99,000.00,023.8,022.9,000.0,032.2,025.0,13.4,0000.0,0001.56,0001.19,0001.03
2023-12-06 12:54:00,SystemResetWarning,0833.8,4.99,000.00,023.8,022.8,000.0,032.2,025.0,13.3,0000.0,0001.51,0001.20,0001.05
2023-12-06 12:55:00,SystemResetWarning,0833.8,4.99,000.00,023.8,022.8,000.0,032.2,025.1,13.4,0000.0,0001.60,0001.24,0001.07
2023-12-06 12:56:00,SystemResetWarning,0833.8,4.99,000.00,023.8,022.8,000.0,032.1,025.0,13.4,0000.0,0001.63,0001.26,0001.09
2023-12-06 12:57:00,SystemResetWarning,0833.8,5.01,000.00,023.8,022.8,000.0,032.1,025.0,13.4,0000.0,0001.63,0001.26,0001.09
2023-12-06 12:58:00,SystemResetWarning,0833.8,5.00,000.00,023.8,022.8,000.0,032.1,025.0,13.4,0000.0,0001.60,0001.24,0001.08
2023-12-06 12:59:00,SystemResetWarning,0833.7,5.00,000.00,023.8,022.8,000.0,032.1,025.0,13.2,0000.0,0001.61,0001.23,0001.07
